{"data":{"norad_id":64236,"epoch":"2026-05-24T21:46:53.975424Z","epoch_age_seconds":76842,"freshness":"FRESH","line1":"1 64236U 25119D   26144.90756916  .00167848  00000+0  12792-2 0  9995","line2":"2 64236  42.9996 109.5353 0002916 280.3603  79.6936 15.70951965 57233","mean_motion":15.70951965,"eccentricity":0.0002916,"inclination_deg":42.9996,"raan_deg":109.5353,"arg_perigee_deg":280.3603,"mean_anomaly_deg":79.6936,"bstar":0.0012792,"rev_number":5723,"period_min":91.664164919263,"perigee_km":354.21133825324,"apogee_km":358.13878904876,"semimajor_km":6734.312063651,"source":"CELESTRAK","updated_at":"2026-05-25T13:38:20.351146Z"}}